DAL8485 KSAV-KPHX

Flight info

Callsign DAL8485
Flight time N/A
Altitude 38000
Route SMALZ WIGVO DBN MCN STNGA SQS ZACHH TXO/N0481F400 CRTTR BEANN ACOMA ZUN EAGUL6
Aircraft B772/H-SDE2E3FGHIJ5LORVWXY/LB1D1

Departure

Time 2026-05-05 16:52
Airport Savannah Hilton Head International Airport (KSAV)

Arrival

Time N/A
Airport Phoenix Sky Harbor International Airport (KPHX)
Time Latitude Longitude Altitude Speed Heading
2026-05-05 16:44 32.13469 -81.20695 32 ft 2 kts
2026-05-05 16:44 32.13460 -81.20695 32 ft 1 kts 360°
2026-05-05 16:45 32.13448 -81.20691 32 ft 1 kts 303°
2026-05-05 16:45 32.13445 -81.20680 32 ft 1 kts 268°
2026-05-05 16:45 32.13445 -81.20676 32 ft 0 kts 270°
2026-05-05 16:47 32.13445 -81.20694 32 ft 6 kts 270°
2026-05-05 16:47 32.13440 -81.20774 31 ft 10 kts 242°
2026-05-05 16:47 32.13370 -81.20812 29 ft 12 kts 186°
2026-05-05 16:47 32.13280 -81.20815 30 ft 12 kts 180°
2026-05-05 16:48 32.13190 -81.20815 31 ft 13 kts 180°
2026-05-05 16:48 32.13095 -81.20815 32 ft 13 kts 187°
2026-05-05 16:48 32.13046 -81.20885 31 ft 12 kts 257°
2026-05-05 16:48 32.13041 -81.20997 30 ft 14 kts 270°
2026-05-05 16:49 32.13041 -81.21128 28 ft 17 kts 270°
2026-05-05 16:49 32.13042 -81.21274 28 ft 18 kts 270°
2026-05-05 16:49 32.13041 -81.21429 27 ft 19 kts 269°
2026-05-05 16:49 32.13040 -81.21577 26 ft 14 kts 274°
2026-05-05 16:50 32.13047 -81.21695 25 ft 14 kts 274°
2026-05-05 16:50 32.13037 -81.21815 25 ft 13 kts 234°
2026-05-05 16:50 32.12973 -81.21859 25 ft 10 kts 196°
2026-05-05 16:50 32.12906 -81.21861 24 ft 8 kts 183°
2026-05-05 16:51 32.12881 -81.21841 23 ft 0 kts 99°
2026-05-05 16:51 32.12878 -81.21820 23 ft 13 kts 98°
2026-05-05 16:51 32.12869 -81.21341 29 ft 101 kts 90°
2026-05-05 16:51 32.12855 -81.20202 105 ft 167 kts 92°
2026-05-05 16:52 32.12842 -81.18787 822 ft 178 kts 93°
2026-05-05 16:52 32.12803 -81.17384 1818 ft 170 kts 95°
2026-05-05 16:52 32.12939 -81.16018 2313 ft 181 kts 65°
2026-05-05 16:52 32.13888 -81.14970 2614 ft 203 kts 22°
2026-05-05 16:53 32.15344 -81.14943 2934 ft 221 kts 341°
2026-05-05 16:53 32.16585 -81.16049 3283 ft 237 kts 302°
2026-05-05 16:53 32.17298 -81.17865 3743 ft 253 kts 291°
2026-05-05 16:53 32.17972 -81.19868 4271 ft 268 kts 290°
2026-05-05 16:54 32.18656 -81.21916 5043 ft 273 kts 290°
2026-05-05 16:54 32.19343 -81.23974 5882 ft 274 kts 290°
2026-05-05 16:54 32.20041 -81.26067 6691 ft 276 kts 290°
2026-05-05 16:54 32.20742 -81.28167 7503 ft 278 kts 290°
2026-05-05 16:55 32.21442 -81.30271 8284 ft 280 kts 289°
2026-05-05 16:55 32.22155 -81.32412 9062 ft 282 kts 289°
2026-05-05 16:55 32.22876 -81.34577 9830 ft 284 kts 289°
2026-05-05 16:55 32.23593 -81.36736 10482 ft 291 kts 289°
2026-05-05 16:56 32.24347 -81.39013 10856 ft 307 kts 289°
2026-05-05 16:56 32.25154 -81.41447 11223 ft 324 kts 290°
2026-05-05 16:56 32.25986 -81.43961 11614 ft 340 kts 290°
2026-05-05 16:56 32.26864 -81.46613 12000 ft 355 kts 290°
2026-05-05 16:57 32.27165 -81.47521 12130 ft 360 kts 290°